Stations météo

réclame
Mon MeteoGroup
Goteborg/Landvetter, Suède (2526): Température de l'air & dewpoint: 11.07.2018 13:00:00 - 17.07.2018 13:00:00 (CEST)Goteborg/Landvetter, Suède (2526): Vitesse du vent: 11.07.2018 13:00:00 - 17.07.2018 13:00:00 (CEST)Goteborg/Landvetter, Suède (2526): Direction du vent: 11.07.2018 13:00:00 - 17.07.2018 13:00:00 (CEST)Goteborg/Landvetter, Suède (2526): reduced air pressure: 11.07.2018 13:00:00 - 17.07.2018 13:00:00 (CEST)Goteborg/Landvetter, Suède (2526): visibility: 11.07.2018 13:00:00 - 17.07.2018 13:00:00 (CEST)
Date & Time tt [°C] td [°C] ff [km/h] ff [knt] dd ppp [hPa] vv [km]
17.07.2018 13:00:00 28,9 11,9 11 6 SSE 1012,4 50
17.07.2018 12:00:00 27,9 11,0 14 8 E 1012,8 50
17.07.2018 11:00:00 26,4 11,7 14 8 E 1013,1 26
17.07.2018 10:00:00 25,2 11,4 14 8 ESE 1013,1 50
17.07.2018 09:00:00 23,5 11,9 14 8 ESE 1013,1 30
17.07.2018 08:00:00 21,8 12,6 14 8 E 1013,2 50
17.07.2018 07:00:00 19,8 13,0 11 6 ENE 1013,2 45
17.07.2018 06:00:00 17,5 13,8 11 6 NE 1013,6 50
17.07.2018 05:00:00 15,3 13,3 11 6 NE 1013,8 50
17.07.2018 04:00:00 15,8 13,6 11 6 NE 1013,8 50
17.07.2018 03:00:00 17,5 13,4 11 6 N 1013,9 50
17.07.2018 02:00:00 17,3 13,2 11 6 NNE 1014,2 50
17.07.2018 01:00:00 19,0 13,4 11 6 NNE 1014,1 50
17.07.2018 00:00:00 19,3 13,2 7 4 N 1014,3 50
16.07.2018 23:00:00 19,5 14,1 11 6 N 1014,3 50
16.07.2018 22:00:00 18,3 15,9 11 6 WNW 1014,5 50
16.07.2018 21:00:00 23,1 14,4 11 6 NW 1014,0 50
16.07.2018 20:00:00 25,2 13,7 11 6 NNW 1013,4 50
16.07.2018 19:00:00 25,0 13,9 14 8 N 1013,4 50
16.07.2018 18:00:00 24,4 14,2 14 8 NE 1013,7 45
16.07.2018 17:00:00 28,8 13,9 14 8 NW 1013,2 50
16.07.2018 16:00:00 28,4 12,7 11 6 NNW 1013,6 45
16.07.2018 15:00:00 27,4 12,6 7 4 N 1014,4 50
16.07.2018 14:00:00 26,8 12,8 4 2 ENE 1015,0 45
16.07.2018 13:00:00 26,0 12,8 11 6 NW 1015,5 50
16.07.2018 12:00:00 24,4 12,7 11 6 NNW 1016,0 50
16.07.2018 11:00:00 22,6 12,5 11 6 NNW 1016,3 50
16.07.2018 10:00:00 20,9 14,3 11 6 NNE 1016,6 40
16.07.2018 09:00:00 18,6 14,5 7 4 N 1017,2 30
16.07.2018 08:00:00 17,0 15,2 7 4 N 1017,3 14
16.07.2018 07:00:00 15,1 13,6 4 2 NNE 1017,5 11
16.07.2018 06:00:00 13,3 12,0 4 2 NNE 1017,4 15
16.07.2018 05:00:00 13,1 11,8 4 2 NE 1017,6 13
16.07.2018 04:00:00 12,9 12,3 4 2 NNE 1017,5 4,1
16.07.2018 03:00:00 13,1 12,3 4 2 NNE 1017,5 4,1
16.07.2018 02:00:00 13,3 12,8 4 2 NE 1017,5 2,7
16.07.2018 01:00:00 13,4 12,5 4 2 N 1017,6 3,2
16.07.2018 00:00:00 13,7 12,8 4 2 NW 1017,5 5
15.07.2018 23:00:00 13,7 12,4 7 4 NNW 1017,3 11
15.07.2018 22:00:00 15,1 12,8 7 4 NW 1017,0 25
15.07.2018 21:00:00 16,8 12,7 7 4 WNW 1016,6 45
15.07.2018 20:00:00 18,5 12,7 11 6 W 1016,3 40
15.07.2018 19:00:00 19,9 12,6 11 6 WNW 1016,2 40
15.07.2018 18:00:00 20,4 13,1 14 8 W 1016,4 35
15.07.2018 17:00:00 20,2 13,2 11 6 WSW 1016,6 40
15.07.2018 16:00:00 20,0 13,2 11 6 W 1016,7 35
15.07.2018 15:00:00 20,1 13,5 14 8 W 1016,7 35
15.07.2018 14:00:00 19,2 12,7 11 6 W 1016,7 50
15.07.2018 13:00:00 18,7 12,4 14 8 W 1016,9 45
15.07.2018 12:00:00 17,5 12,6 14 8 W 1016,9 35
15.07.2018 11:00:00 16,6 12,6 14 8 SW 1016,9 40
15.07.2018 10:00:00 16,4 12,6 11 6 WSW 1016,6 40
15.07.2018 09:00:00 16,1 13,0 14 8 WSW 1016,2 29
15.07.2018 08:00:00 15,8 12,5 11 6 W 1015,9 35
15.07.2018 07:00:00 15,3 12,4 11 6 WSW 1015,6 35
15.07.2018 06:00:00 14,9 12,2 11 6 SW 1015,4 45
15.07.2018 05:00:00 14,7 12,0 11 6 SW 1015,4 50
15.07.2018 04:00:00 14,5 11,8 11 6 SW 1015,4 45
15.07.2018 03:00:00 14,3 11,8 11 6 SW 1015,5 50
15.07.2018 02:00:00 13,6 11,8 11 6 SSW 1015,6 45
15.07.2018 01:00:00 12,1 11,2 11 6 SSW 1015,7 40
15.07.2018 00:00:00 12,2 10,9 11 6 SSW 1015,8 40
14.07.2018 23:00:00 14,0 11,3 14 8 SSW 1015,7 50
14.07.2018 22:00:00 14,8 11,2 11 6 S 1015,9 50
14.07.2018 21:00:00 14,8 10,8 11 6 SSW 1015,9 50
14.07.2018 20:00:00 15,4 10,6 18 10 WSW 1015,8 40
14.07.2018 19:00:00 15,9 11,1 14 8 SW 1016,2 45
14.07.2018 18:00:00 16,6 10,7 18 10 SW 1015,9 30
14.07.2018 17:00:00 16,9 11,0 14 8 SW 1016,2 45
14.07.2018 16:00:00 18,3 11,4 18 10 WSW 1016,1 40
14.07.2018 15:00:00 18,4 11,0 14 8 SW 1016,1 45
14.07.2018 14:00:00 18,7 11,5 14 8 WSW 1016,3 45
14.07.2018 13:00:00 18,4 11,7 14 8 WSW 1016,6 45
14.07.2018 12:00:00 18,0 11,6 14 8 WSW 1016,6 45
14.07.2018 11:00:00 17,3 11,8 14 8 SW 1016,7 40
14.07.2018 10:00:00 17,3 12,0 11 6 WSW 1016,6 35
14.07.2018 09:00:00 15,2 11,6 7 4 WSW 1016,8 45
14.07.2018 08:00:00 14,6 11,7 7 4 WSW 1016,8 50
14.07.2018 07:00:00 14,1 12,3 14 8 WSW 1016,2 40
14.07.2018 06:00:00 13,4 12,1 7 4 WSW 1016,2 22
14.07.2018 05:00:00 12,8 12,0 7 4 WSW 1016,2 20
14.07.2018 04:00:00 12,6 11,8 4 2 WSW 1016,3 13
14.07.2018 03:00:00 12,7 11,9 7 4 W 1016,3 14
14.07.2018 02:00:00 13,1 11,8 7 4 WSW 1016,2 26
14.07.2018 01:00:00 14,0 12,2 7 4 WSW 1016,2 35
14.07.2018 00:00:00 14,6 12,8 4 2 WNW 1016,2 23
13.07.2018 23:00:00 15,5 12,3 7 4 W 1015,8 45
13.07.2018 22:00:00 16,9 8,3 7 4 W 1015,7 50
13.07.2018 21:00:00 19,1 9,8 11 6 W 1015,4 45
13.07.2018 20:00:00 20,9 13,1 14 8 WNW 1014,8 45
13.07.2018 19:00:00 22,2 15,3 11 6 WNW 1014,8 40
13.07.2018 18:00:00 24,1 13,9 18 10 WNW 1014,5 40
13.07.2018 17:00:00 25,3 9,2 14 8 W 1014,3 45
13.07.2018 16:00:00 25,8 10,0 14 8 W 1014,4 40
13.07.2018 15:00:00 26,4 11,7 18 10 WSW 1013,9 30
13.07.2018 14:00:00 26,6 15,3 18 10 WNW 1014,0 26
13.07.2018 13:00:00 26,7 13,4 14 8 WSW 1014,1 35
13.07.2018 12:00:00 26,2 9,9 4 2 NNW 1014,4 50
13.07.2018 11:00:00 25,2 11,4 7 4 NE 1014,6 40
13.07.2018 10:00:00 23,9 11,9 4 2 NNE 1014,8 40
13.07.2018 09:00:00 22,0 12,3 7 4 N 1015,0 30
13.07.2018 08:00:00 20,4 12,4 0 0 N 1015,1 50
13.07.2018 07:00:00 18,8 11,8 4 2 SSE 1015,0 45
13.07.2018 06:00:00 17,1 10,7 0 0 N 1015,0 40
13.07.2018 05:00:00 16,1 9,5 0 0 N 1015,1 50
13.07.2018 04:00:00 15,9 9,8 4 2 S 1015,1 50
13.07.2018 03:00:00 16,1 10,0 4 2 SSW 1015,2 50
13.07.2018 02:00:00 15,5 10,7 0 0 N 1015,1 50
13.07.2018 01:00:00 18,1 10,0 4 2 NNE 1014,9 50
13.07.2018 00:00:00 18,9 9,7 7 4 N 1015,0 50
12.07.2018 23:00:00 20,2 8,8 4 2 N 1015,0 50
12.07.2018 22:00:00 21,3 8,9 7 4 NW 1015,0 50
12.07.2018 21:00:00 23,0 9,0 11 6 NW 1014,6 50
12.07.2018 20:00:00 22,9 11,0 7 4 NNW 1014,4 50
12.07.2018 19:00:00 24,8 11,0 11 6 NW 1014,1 50
12.07.2018 18:00:00 23,4 11,4 25 14 ENE 1014,5 45
12.07.2018 17:00:00 27,0 10,2 22 12 NW 1013,6 35
12.07.2018 16:00:00 26,6 11,1 14 8 NW 1013,9 30
12.07.2018 15:00:00 26,4 12,1 18 10 W 1014,0 45
12.07.2018 14:00:00 26,3 11,2 14 8 NNE 1014,4 28
12.07.2018 13:00:00 26,0 9,4 11 6 NNE 1014,7 50
12.07.2018 12:00:00 25,5 9,3 11 6 NNE 1015,1 45
12.07.2018 11:00:00 25,3 9,2 14 8 N 1015,2 50
12.07.2018 10:00:00 24,2 11,8 7 4 NNE 1015,4 50
12.07.2018 09:00:00 22,5 11,3 4 2 S 1015,6 50
12.07.2018 08:00:00 20,3 11,5 7 4 SE 1015,8 50
12.07.2018 07:00:00 18,4 10,7 11 6 SE 1015,9 50
12.07.2018 06:00:00 17,7 10,3 11 6 ESE 1016,0 45
12.07.2018 05:00:00 16,3 10,4 4 2 ESE 1016,3 45
12.07.2018 04:00:00 17,3 10,4 0 0 N 1016,3 50
12.07.2018 03:00:00 18,2 10,1 7 4 SE 1016,1 50
12.07.2018 02:00:00 18,7 10,3 4 2 E 1016,4 50
12.07.2018 01:00:00 18,4 10,0 7 4 SE 1016,7 50
12.07.2018 00:00:00 20,3 10,1 7 4 E 1016,6 50
11.07.2018 23:00:00 20,5 10,0 7 4 ESE 1016,6 50
11.07.2018 22:00:00 22,3 9,8 7 4 E 1016,5 50
11.07.2018 21:00:00 23,8 9,8 7 4 E 1016,2 50
11.07.2018 20:00:00 24,4 9,5 7 4 E 1016,0 50
11.07.2018 19:00:00 25,0 9,7 11 6 NNE 1015,9 50
11.07.2018 18:00:00 24,8 9,5 7 4 NNE 1016,2 45
11.07.2018 17:00:00 23,6 12,6 4 2 NNW 1016,5 50
11.07.2018 16:00:00 23,4 13,0 14 8 WNW 1016,8 50
11.07.2018 15:00:00 24,1 10,4 4 2 NE 1017,0 45
11.07.2018 14:00:00 24,2 9,4 11 6 E 1017,2 50
11.07.2018 13:00:00 25,7 11,1 18 10 NE 1017,4 50

tt = Température de l'air
td = dewpoint
ff = Vitesse du vent
dd = Direction du vent
ppp = reduced air pressure
vv = visibility

stations d'obs. à proximité